This demonstration page uses our WeatherBlox Daily Observations layout. Learn more.

Left ArrowRight Arrow

53.62937, 11.41316

Hourly Observations for May 24, 2021

Temp ( °F °C ) Dew Point ( °F °C ) Humidity (%) Winds ( mph kmh ) Pressure ( in mb ) Visibility ( mi km ) Precip ( " mm )
6:20 am 06:20 Mostly Sunny 50 10 43 6 76 76 SSE 6 9 29.91 1013 7 11 N/A
6:50 am 06:50 Mostly Sunny 52 11 43 6 72 72 SSE 6 9 29.91 1013 7 11 N/A
7:20 am 07:20 Mostly Sunny 52 11 43 6 72 72 SSE 7 11 29.91 1013 7 11 N/A
7:50 am 07:50 Mostly Sunny 54 12 45 7 72 72 SSE 7 11 29.91 1013 7 11 N/A
8:20 am 08:20 Mostly Sunny 55 13 45 7 67 67 SE 7 11 29.91 1013 7 11 N/A
8:50 am 08:50 Mostly Sunny 55 13 45 7 67 67 SSE 7 11 29.91 1013 7 11 N/A
9:20 am 09:20 Mostly Sunny 57 14 45 7 63 63 SE 8 13 29.91 1013 7 11 N/A
9:50 am 09:50 Mostly Sunny 61 16 46 8 59 59 SE 8 13 29.91 1013 7 11 N/A
10:20 am 10:20 Mostly Sunny 61 16 46 8 59 59 SE 10 17 29.88 1012 7 11 N/A
10:50 am 10:50 Mostly Sunny 63 17 46 8 56 56 SE 10 17 29.88 1012 7 11 N/A
11:20 am 11:20 Mostly Sunny 63 17 46 8 56 56 SE 12 19 29.88 1012 7 11 N/A
11:50 am 11:50 Mostly Sunny 64 18 45 7 49 49 VRB 9 15 29.85 1011 7 11 N/A
12:20 pm 12:20 Mostly Sunny 66 19 43 6 43 43 S 10 17 29.85 1011 7 11 N/A
12:50 pm 12:50 Mostly Sunny 64 18 43 6 46 46 VRB 8 13 29.85 1011 7 11 N/A
1:20 pm 13:20 Mostly Sunny 66 19 45 7 46 46 SSE 8 13 29.85 1011 7 11 N/A
1:50 pm 13:50 Mostly Sunny 66 19 45 7 46 46 SE 8 13 29.82 1010 7 11 N/A
2:20 pm 14:20 Mostly Sunny 66 19 43 6 43 43 SSE 9 15 29.82 1010 7 11 N/A
2:50 pm 14:50 Mostly Sunny 66 19 41 5 40 40 SSE 9 15 29.82 1010 7 11 N/A
3:20 pm 15:20 Mostly Sunny 66 19 41 5 40 40 SSE 10 17 29.80 1009 7 11 N/A
3:50 pm 15:50 Mostly Sunny 68 20 41 5 38 38 SSE 10 17 29.79 1009 7 11 N/A
4:20 pm 16:20 Mostly Sunny 68 20 41 5 38 38 SSE 10 17 29.79 1009 7 11 N/A
4:50 pm 16:50 Mostly Sunny 68 20 41 5 38 38 SSE 10 17 29.77 1008 7 11 N/A
5:20 pm 17:20 Mostly Sunny 68 20 41 5 38 38 SSE 9 15 29.77 1008 7 11 N/A
5:50 pm 17:50 Mostly Sunny 68 20 43 6 40 40 SSE 8 13 29.77 1008 7 11 N/A
6:20 pm 18:20 Mostly Sunny 68 20 41 5 38 38 SSE 10 17 29.77 1008 7 11 N/A
6:50 pm 18:50 Mostly Sunny 68 20 41 5 38 38 SE 7 11 29.74 1007 7 11 N/A
7:20 pm 19:20 Mostly Sunny 66 19 43 6 43 43 SE 5 7 29.74 1007 7 11 N/A
7:50 pm 19:50 Mostly Sunny 66 19 41 5 40 40 SE 5 7 29.74 1007 7 11 N/A
8:20 pm 20:20 Partly Cloudy with Showers Nearby 64 18 43 6 46 46 VRB 2 4 29.74 1007 30 48 N/A
8:50 pm 20:50 Partly Cloudy with Light Showers 55 13 50 10 82 82 W 15 24 29.77 1008 30 48 N/A
9:20 pm 21:20 Partly Cloudy with Showers Nearby 54 12 50 10 88 88 WNW 8 13 29.77 1008 30 48 N/A
9:50 pm 21:50 Partly Cloudy with Showers Nearby 55 13 50 10 82 82 W 5 7 29.80 1009 30 48 N/A

Powered by AerisWeather